Terre Haute, IN

9:08 PM EDT on April 24, 2017 (GMT -0400)
Terre Haute International-Hulman

Weather History for KHUF - March, 2013

Change the Weather History Date:

Sunday, March 17, 2013

  Actual Average Record
Temperature  
Mean Temperature 35 °F 43 °F  
Max Temperature 39 °F 54 °F 80 °F (2012)
Min Temperature 31 °F 33 °F 18 °F (1976)
Degree Days  
Heating Degree Days 30 22  
Month to date heating degree days 494 423  
Since 1 July heating degree days 4415 4586  
Moisture  
Dew Point 28 °F    
Average Humidity 79    
Maximum Humidity 89    
Minimum Humidity 69    
Precipitation  
Precipitation 0.22 in 0.12 in 0.91 in (1973)
Month to date precipitation 0.83 1.70  
Year to date precipitation 8.48 5.99  
Sea Level Pressure  
Sea Level Pressure 30.06 in    
Wind  
Wind Speed 12 mph (ENE)    
Max Wind Speed 17 mph    
Max Gust Speed 23 mph    
Visibility 10 miles    
Events Rain , Snow    
T = Trace of Precipitation, MM = Missing Value Source: NWS Daily Summary

Daily Weather History Graph

Daily Weather History Graph

Search for Another Location

Airport or City:

Trip Planner

Search our weather history database for the weather conditions in past years. The results will help you decide how hot, cold, wet, or windy it might be!

Date:

Astronomy

Mar. 17, 2013 Rise Set
Actual Time 7:57 AM EDT 7:58 PM EDT
Civil Twilight 7:30 AM EDT 8:25 PM EDT
Nautical Twilight 6:59 AM EDT 8:56 PM EDT
Astronomical Twilight 6:27 AM EDT 9:28 PM EDT
Moon 11:11 AM EDT (3/17) 1:04 AM EDT (3/17)
Length of Visible Light 12h 54m
Length of Day
12h 01m
Waxing Crescent, 31% of the Moon is Illuminated
Mar 17
Waxing Crescent
Mar 19
First Quarter
Mar 27
Full
Apr 3
Last Quarter
Apr 10
New

Hourly Weather History & Observations

Time (EDT) Temp. Windchill Dew Point Humidity Pressure Visibility Wind Dir Wind Speed Gust Speed Precip Events Conditions
12:53 AM 34.0 °F 26.0 °F 28.0 °F 79% 30.07 in 10.0 mi NNE 10.4 mph - N/A   Mostly Cloudy
1:06 AM 33.8 °F 25.8 °F 28.4 °F 81% 30.06 in 10.0 mi NNE 10.4 mph - N/A   Scattered Clouds
1:53 AM 34.0 °F 27.2 °F 28.0 °F 79% 30.06 in 10.0 mi NNE 8.1 mph - N/A   Partly Cloudy
2:39 AM 33.8 °F 27.0 °F 28.4 °F 81% 30.06 in 10.0 mi NNE 8.1 mph - N/A   Mostly Cloudy
2:53 AM 33.1 °F 26.1 °F 28.0 °F 82% 30.07 in 10.0 mi North 8.1 mph - N/A   Overcast
3:53 AM 33.1 °F 23.9 °F 26.1 °F 75% 30.08 in 10.0 mi North 12.7 mph - N/A   Overcast
4:53 AM 32.0 °F 24.2 °F 25.0 °F 75% 30.09 in 10.0 mi NE 9.2 mph - N/A   Overcast
5:53 AM 32.0 °F 24.2 °F 25.0 °F 75% 30.10 in 10.0 mi NE 9.2 mph - N/A   Overcast
6:27 AM 32.0 °F 23.0 °F 24.8 °F 75% 30.10 in 10.0 mi NE 11.5 mph - N/A   Overcast
6:53 AM 30.9 °F 22.2 °F 24.1 °F 76% 30.13 in 10.0 mi ENE 10.4 mph - N/A   Mostly Cloudy
7:53 AM 30.9 °F 21.7 °F 24.1 °F 76% 30.15 in 10.0 mi NE 11.5 mph - N/A   Overcast
8:51 AM 32.0 °F 22.5 °F 24.8 °F 75% 30.12 in 10.0 mi ENE 12.7 mph - N/A   Overcast
8:53 AM 32.0 °F 23.0 °F 25.0 °F 75% 30.14 in 10.0 mi ENE 11.5 mph - N/A   Overcast
9:09 AM 32.0 °F 23.0 °F 26.6 °F 80% 30.13 in 10.0 mi NE 11.5 mph - N/A   Overcast
9:53 AM 32.0 °F 24.2 °F 26.1 °F 79% 30.14 in 10.0 mi NE 9.2 mph - N/A   Overcast
10:53 AM 33.1 °F 24.4 °F 26.1 °F 75% 30.14 in 10.0 mi ENE 11.5 mph - N/A   Overcast
11:53 AM 34.0 °F 24.6 °F 25.0 °F 70% 30.14 in 10.0 mi ENE 13.8 mph - N/A   Overcast
12:04 PM 33.8 °F 24.3 °F 26.6 °F 75% 30.13 in 10.0 mi East 13.8 mph - N/A   Mostly Cloudy
12:53 PM 35.1 °F 26.4 °F 26.1 °F 70% 30.14 in 10.0 mi East 12.7 mph - N/A   Partly Cloudy
1:53 PM 37.9 °F 30.5 °F 28.0 °F 68% 30.13 in 10.0 mi ENE 11.5 mph - N/A   Scattered Clouds
2:53 PM 37.9 °F 29.2 °F 28.9 °F 70% 30.10 in 10.0 mi ENE 15.0 mph - N/A   Mostly Cloudy
3:53 PM 37.9 °F 30.0 °F 28.0 °F 68% 30.06 in 10.0 mi ENE 12.7 mph - N/A   Overcast
4:53 PM 39.0 °F 31.0 °F 30.0 °F 70% 30.03 in 10.0 mi East 13.8 mph - N/A   Overcast
5:38 PM 37.4 °F 29.3 °F 28.4 °F 70% 30.02 in 10.0 mi East 12.7 mph - N/A   Overcast
5:46 PM 37.4 °F 29.3 °F 28.4 °F 70% 30.01 in 10.0 mi East 12.7 mph - N/A   Overcast
5:53 PM 37.9 °F 30.0 °F 28.9 °F 70% 30.03 in 10.0 mi East 12.7 mph - N/A   Overcast
6:53 PM 37.0 °F 28.9 °F 28.9 °F 73% 30.04 in 10.0 mi ENE 12.7 mph - N/A   Overcast
7:04 PM 37.4 °F 29.8 °F 30.2 °F 75% 30.02 in 10.0 mi East 11.5 mph - N/A   Overcast
7:41 PM 37.4 °F 29.3 °F 28.4 °F 70% 30.00 in 10.0 mi East 12.7 mph - N/A   Scattered Clouds
7:48 PM 37.4 °F 29.8 °F 28.4 °F 70% 30.00 in 10.0 mi East 11.5 mph - N/A   Mostly Cloudy
7:53 PM 37.0 °F 28.1 °F 28.9 °F 73% 30.01 in 10.0 mi East 15.0 mph - N/A   Mostly Cloudy
8:53 PM 37.0 °F 28.9 °F 30.0 °F 76% 29.99 in 10.0 mi ENE 12.7 mph - 0.00 in Snow Light Snow
9:53 PM 37.0 °F 29.3 °F 28.9 °F 73% 30.01 in 9.0 mi East 11.5 mph - 0.00 in   Overcast
10:53 PM 35.1 °F 26.4 °F 30.9 °F 85% 29.95 in 9.0 mi East 12.7 mph - 0.03 in Rain Light Rain
11:00 PM 35.6 °F 26.2 °F 30.2 °F 81% 29.92 in 10.0 mi East 15.0 mph - 0.01 in Rain Light Rain
11:53 PM 35.1 °F 25.5 °F 32.0 °F 89% 29.93 in 5.0 mi East 15.0 mph - 0.07 in Rain Rain